Location: Manderson
(44.2693°N, 107.9639°W)
Time: 16:47:00
(UTC+00:00)

X-37B - Visible Passes

Search period start: 19 January 2022 00:00
Search period end: 29 January 2022 00:00
Orbit: 334 x 337 km, 45.0° (Epoch: 11 January)

Date Brightness Start Highest point End Pass type
(mag) Time Alt. Az. Time Alt. Az. Time Alt. Az.
26 Jan 3.0 02:06:57 10° SSW 02:07:37 14° S 02:07:37 14° S visible
27 Jan 3.1 02:26:40 10° SW 02:27:26 16° SW 02:27:26 16° SW visible
28 Jan 2.2 01:12:24 10° SSW 01:14:33 19° SSE 01:15:56 14° ESE visible
28 Jan 3.8 02:46:54 10° WSW 02:47:10 12° WSW 02:47:10 12° WSW visible
